Lapse_Rate
6.2 6.2 6.2 6.3 6.6 6.8 7.1 7.3 7.4 7.4 7.3 7.0 6.8 6.8 6.7 6.6 6.6 6.7 6.6 6.5 6.6 6.7 6.5 6.6 6.6 6.6 6.4 6.5 6.5 6.4 6.5 6.6 6.5 6.5 6.5 6.6 6.7 6.9 6.9 6.9 6.8 7.0 6.9 6.8 6.8 7.0 6.9
6.5 6.3 6.4 6.5 6.6 6.7 7.0 7.1 7.2 7.2 7.2 7.0 6.7 6.6 6.6 6.6 6.5 6.5 6.5 6.5 6.5 6.5 6.5 6.5 6.5 6.5 6.3 6.1 6.3 6.3 6.3 6.3 6.5 6.4 6.6 6.5 6.5 6.6 6.6 6.6 6.6 6.7 6.9 6.8 6.6 6.8 6.7
6.6 6.6 6.3 6.6 6.7 6.7 6.8 7.0 7.0 7.1 7.1 7.0 6.9 6.8 6.8 6.7 6.6 6.6 6.5 6.5 6.4 6.5 6.5 6.5 6.5 6.2 6.0 5.9 6.1 6.2 6.2 6.2 6.4 6.2 6.4 6.5 6.4 6.3 6.4 6.3 6.3 6.2 6.5 6.5 6.4 6.4 6.6
6.6 6.6 6.3 6.7 6.6 6.9 6.7 6.9 6.9 7.0 7.1 7.0 7.0 7.0 7.0 6.8 6.8 6.7 6.7 6.6 6.5 6.5 6.5 6.5 6.3 6.1 5.7 5.5 5.6 5.9 6.2 6.3 6.1 6.2 6.3 6.4 6.4 6.3 6.2 6.1 6.0 5.8 5.8 6.1 6.3 6.3 6.1
6.7 6.8 6.3 6.6 6.7 6.9 6.8 6.8 6.9 6.9 6.9 6.9 7.0 7.1 7.1 6.9 6.8 6.7 6.7 6.7 6.6 6.6 6.6 6.4 6.3 6.1 5.6 5.4 5.4 5.6 5.7 6.0 6.3 6.5 6.5 6.3 6.2 6.3 6.1 6.2 6.0 5.6 4.9 5.1 5.8 5.6 5.4
6.8 7.0 6.5 6.5 6.8 6.7 6.9 6.8 6.9 6.9 6.9 7.0 7.0 7.0 7.0 6.9 6.8 6.8 6.8 6.8 6.7 6.7 6.6 6.3 6.1 6.0 5.7 5.5 5.5 5.7 6.0 6.0 6.2 6.4 6.5 6.4 6.5 6.0 5.8 6.2 5.4 4.9 5.0 4.8 4.7 5.3 5.5
6.8 6.9 6.9 6.6 6.7 6.7 6.8 6.9 6.7 6.9 6.9 6.9 7.0 6.9 6.9 6.9 6.8 6.8 6.9 6.9 6.7 6.6 6.4 6.3 6.1 6.0 5.7 5.4 5.5 5.7 6.1 5.9 6.3 6.3 6.6 6.5 6.0 6.0 5.1 4.9 4.7 4.8 4.5 4.3 4.4 4.8 5.2
6.8 6.9 7.0 6.7 6.8 6.9 6.7 6.9 6.9 6.8 6.8 6.8 6.8 6.8 6.7 6.8 6.9 6.9 6.7 6.6 6.3 6.4 6.0 5.8 5.7 5.7 5.5 5.3 5.7 5.8 6.1 6.3 6.4 6.6 6.0 5.9 5.8 5.0 4.9 4.7 4.8 4.7 4.4 4.4 4.5 4.5 3.8
6.8 6.9 6.8 7.0 6.7 6.9 6.8 6.9 6.9 6.8 6.8 6.8 6.8 6.7 6.7 6.9 6.9 6.9 6.8 6.6 6.3 6.2 6.1 5.6 5.6 5.6 5.5 5.5 5.7 6.0 6.0 5.9 6.1 6.0 5.9 5.7 4.7 4.8 5.0 4.7 5.0 4.7 4.4 4.5 4.4 4.0 4.1
6.4 6.7 6.9 6.8 6.8 6.9 6.9 6.7 6.9 6.8 6.8 6.8 6.8 6.8 6.8 6.8 6.9 6.9 6.8 6.7 6.3 6.2 6.2 5.7 5.7 5.6 5.2 5.2 5.7 5.7 5.7 5.9 5.8 5.5 5.3 4.9 4.6 4.7 4.7 4.7 4.3 4.5 4.4 4.4 4.3 4.0 3.7
6.3 6.3 6.6 6.9 6.8 6.6 6.9 6.8 6.9 6.8 6.8 6.8 6.8 6.9 6.9 6.9 7.0 7.0 6.8 6.7 6.3 6.1 4.0 5.6 5.4 5.3 5.3 5.2 5.2 5.5 5.7 5.8 5.7 5.4 5.3 4.6 4.7 4.8 4.5 4.3 4.4 4.4 4.4 4.6 4.7 4.5 4.3
6.1 6.2 6.3 6.7 6.9 6.7 6.7 6.8 6.8 6.9 6.8 6.8 6.9 6.9 7.0 7.1 7.2 7.1 7.0 6.8 6.2 6.2 5.6 5.7 5.6 5.3 5.3 5.3 5.4 5.6 5.9 6.0 5.9 5.5 5.2 4.9 4.9 4.6 4.3 4.7 4.8 4.6 4.8 5.0 5.2 4.9 4.4
6.0 6.1 6.1 6.3 6.6 6.8 6.7 6.7 6.7 6.8 6.8 6.8 6.8 7.0 7.1 7.2 7.3 7.2 7.1 6.8 6.3 6.3 6.1 5.9 5.9 5.6 5.4 5.4 5.6 5.8 6.0 6.0 5.8 5.8 5.5 5.1 4.7 4.4 4.4 5.3 4.8 4.8 5.0 4.5 4.7 4.8 5.4
5.9 6.0 6.0 6.2 6.3 6.6 6.7 6.7 6.7 6.8 6.9 7.0 6.8 6.9 7.2 7.2 7.2 7.2 7.0 6.7 6.6 6.5 6.2 6.0 6.1 5.8 5.5 5.4 5.2 5.3 5.5 5.7 5.6 5.4 4.9 4.8 4.7 4.5 4.3 4.6 4.8 4.7 4.6 4.8 3.5 4.7 5.4
5.4 5.8 5.8 6.0 6.1 6.3 6.6 6.6 6.7 6.7 6.8 6.9 6.9 7.0 7.0 7.1 7.2 7.0 6.9 6.7 7.1 7.0 6.8 6.5 6.1 5.8 5.6 5.5 5.3 5.0 4.9 5.2 5.4 5.1 4.8 4.6 4.7 4.7 4.5 4.4 4.7 4.8 4.9 4.8 4.9 5.1 5.4
5.5 5.3 5.6 5.7 5.9 6.1 6.3 6.6 6.6 6.6 6.7 6.8 6.9 7.0 6.9 6.9 7.0 7.1 6.9 7.0 7.0 7.1 6.9 6.6 6.3 6.0 5.9 5.6 5.3 5.1 4.7 4.8 4.8 4.8 4.7 4.5 4.7 4.8 4.6 4.2 4.4 4.9 5.0 4.9 5.1 5.3 5.8
5.1 5.4 5.1 5.5 5.7 6.0 6.0 6.4 6.5 6.6 6.6 6.6 6.7 6.8 6.9 6.9 6.9 6.8 6.9 7.0 7.1 7.0 6.8 6.6 6.5 6.3 6.0 5.7 5.4 5.3 5.0 4.9 4.8 4.6 4.6 4.4 4.6 4.9 4.7 4.3 4.5 4.8 4.8 4.8 5.1 5.3 5.3
4.2 5.1 5.1 5.1 5.5 5.7 6.0 6.0 6.3 6.3 6.4 6.5 6.5 6.5 6.9 6.8 6.7 6.9 7.0 7.2 7.2 7.1 6.9 6.7 6.5 6.3 6.1 5.8 5.6 5.4 5.0 4.9 4.9 4.7 4.4 4.4 4.4 4.9 4.6 4.8 4.7 4.8 4.5 4.8 4.8 5.2 5.4
3.5 4.4 5.1 5.1 4.9 5.5 5.8 5.9 5.9 6.1 6.3 6.3 6.5 6.4 6.8 6.7 6.8 7.1 7.2 7.1 7.2 7.1 6.9 6.7 6.5 6.2 5.9 5.8 5.6 5.2 5.2 5.1 5.0 4.7 4.5 4.5 4.3 4.5 4.3 4.4 4.5 4.7 4.6 4.6 4.3 4.6 5.2
4.0 3.8 4.5 5.0 4.9 5.2 5.6 5.7 5.7 5.9 6.0 6.1 6.3 6.2 6.4 6.7 6.8 7.0 7.2 7.2 7.0 6.8 6.7 6.7 6.5 6.3 5.9 5.6 5.6 5.4 5.2 5.0 4.9 5.0 4.7 4.3 4.6 5.0 5.1 5.0 4.7 4.7 4.8 4.6 4.3 3.9 4.7
4.7 4.4 4.4 5.0 5.0 5.0 5.4 5.5 5.7 5.6 5.9 5.9 6.0 6.2 6.6 6.8 7.0 7.1 6.9 6.9 7.1 7.1 6.8 6.5 6.3 6.3 6.1 5.7 5.4 5.3 4.9 4.7 4.7 4.9 5.1 4.8 4.7 4.8 4.9 4.8 4.5 4.8 5.1 5.0 4.5 4.8 4.3
5.8 5.1 4.7 4.4 5.2 5.1 5.3 5.4 5.5 5.6 5.6 5.8 6.0 6.0 6.5 6.9 7.0 6.9 6.9 6.9 7.2 7.0 7.0 6.9 6.7 6.3 6.0 5.8 5.6 5.5 5.2 4.9 4.8 4.6 4.6 4.7 4.6 4.5 5.1 5.1 4.9 5.1 5.2 5.1 5.1 5.3 5.2
6.6 6.0 5.1 4.3 5.2 5.2 5.2 5.5 5.5 5.6 5.6 6.0 5.9 5.9 6.3 6.6 6.8 6.9 7.0 7.1 7.0 6.9 6.7 6.6 6.3 6.3 6.0 5.6 5.5 5.4 5.4 5.3 5.0 4.9 4.5 4.4 4.8 4.4 4.8 4.8 4.8 5.1 5.6 5.2 5.0 5.1 5.3
6.8 6.6 5.7 4.9 5.2 5.3 5.3 5.4 5.5 5.4 5.5 5.7 6.0 6.1 6.1 6.2 6.5 6.8 7.0 6.9 6.7 6.8 6.6 6.4 6.1 5.9 5.7 5.7 5.5 5.5 5.6 5.5 5.4 5.3 4.9 4.8 4.6 4.4 4.6 4.7 2.6 5.2 5.4 5.1 4.9 5.1 5.1
6.9 7.0 6.2 5.4 5.2 5.6 5.4 5.5 5.4 5.5 5.5 5.6 5.7 5.8 5.9 6.0 6.3 6.6 6.5 6.5 6.5 6.1 6.1 6.0 6.0 5.7 5.6 5.6 5.5 5.6 5.6 5.5 5.3 4.9 4.9 4.8 4.5 4.5 4.4 4.3 5.1 5.6 5.4 5.0 4.8 5.0 5.1
7.0 7.8 6.8 5.9 5.4 5.9 5.7 5.7 5.5 5.5 5.5 5.5 5.7 5.7 5.7 5.8 6.2 6.4 6.2 6.3 6.2 6.3 6.0 5.9 5.8 5.7 5.7 5.6 5.6 5.6 5.6 5.4 5.0 4.7 4.7 4.6 4.3 4.3 3.9 4.1 2.9 5.4 5.2 4.6 4.6 4.8 4.9
7.1 7.9 7.3 6.3 5.7 5.6 5.9 5.8 5.7 5.7 5.6 5.5 5.6 5.6 5.6 5.7 5.9 6.0 6.0 6.1 6.2 6.1 6.0 6.1 5.8 5.7 5.5 5.4 5.3 5.5 5.6 5.6 5.4 4.9 4.8 4.4 4.4 4.6 4.0 3.9 4.4 5.7 5.5 5.0 4.5 4.8 4.8
7.0 7.6 7.9 6.7 5.8 5.7 5.8 5.9 5.6 5.7 5.8 5.6 5.7 5.5 5.7 5.8 5.7 5.8 5.9 6.0 6.0 5.9 6.1 6.0 5.6 5.2 5.4 5.3 5.4 5.6 5.6 5.7 5.5 5.1 4.9 5.3 5.2 4.9 4.1 3.8 4.0 5.9 5.7 5.2 5.4 5.3 5.0
7.3 7.6 7.8 7.0 6.1 5.8 5.8 5.9 5.9 5.6 5.8 5.8 5.5 5.6 5.6 6.0 6.0 5.7 5.7 5.8 5.9 5.7 5.8 5.7 5.4 5.9 5.7 5.6 5.4 5.4 5.6 5.6 5.8 5.5 5.2 5.0 5.5 5.5 5.6 6.0 5.5 5.7 5.4 5.0 4.7 4.7 4.8
Wind_Speed
11 10 8 10 12 12 12 12 13 16 17 17 17 19 20 21 22 22 22 22 21 20 19 16 15 15 3 6 1 7 20 15 7 6 6 4 7 2 4 3 5 3 6 8 10 9 8
15 11 10 8 12 12 12 13 15 16 17 18 19 20 21 22 23 23 23 23 22 18 15 13 13 11 1 7 5 11 14 7 5 5 5 7 3 1 4 3 3 4 3 6 6 9 6
12 11 6 9 12 12 12 13 14 16 18 19 20 21 22 23 24 25 25 24 20 15 12 9 10 2 8 4 4 13 7 3 2 2 3 3 2 6 1 3 4 5 8 6 10 17 6
11 11 11 11 11 13 12 13 14 15 18 19 21 22 23 25 26 27 26 24 15 7 6 7 8 1 5 4 11 5 8 7 6 3 1 2 3 5 5 3 7 6 6 7 7 19 9
13 12 9 9 12 12 13 14 14 15 17 19 21 22 24 26 28 29 28 18 10 5 3 8 4 4 2 10 6 6 3 6 5 5 8 6 6 5 8 4 4 9 3 4 11 11 9
14 14 10 12 13 12 14 14 15 15 17 19 21 22 23 26 28 30 30 7 8 5 4 2 1 5 5 4 5 6 4 3 4 4 6 10 6 6 6 8 3 4 4 4 6 8 5
13 14 13 12 13 14 15 15 15 16 18 19 20 22 24 25 28 30 12 4 5 5 10 4 1 3 2 7 3 5 4 5 5 8 5 6 9 6 5 4 3 3 3 5 6 9 11
11 12 13 13 15 15 14 15 15 15 17 19 21 22 24 25 27 24 4 5 3 1 4 2 3 3 3 2 5 7 5 6 8 7 4 6 10 3 3 4 2 0 2 5 8 6 11
14 11 14 15 13 15 15 15 13 14 16 18 19 20 22 24 20 4 4 3 7 1 4 4 1 2 3 2 2 5 4 2 6 7 6 6 2 4 5 5 6 3 2 3 6 6 6
15 13 13 15 15 15 15 15 14 14 15 17 18 18 20 26 4 2 2 7 7 2 5 4 3 2 2 1 4 3 6 2 6 4 3 4 3 4 4 4 2 3 5 5 6 6 3
15 15 13 16 14 13 14 14 13 13 14 15 16 17 18 9 2 2 4 13 4 3 4 1 1 1 5 6 2 9 4 6 4 3 6 2 5 5 4 3 2 6 6 6 4 2 3
18 15 16 14 14 13 12 11 11 13 14 14 16 16 17 3 1 1 10 5 3 6 3 1 2 3 5 7 5 5 7 7 3 4 5 2 4 3 3 5 3 7 4 5 4 3 2
21 19 18 17 14 13 13 10 11 11 12 13 16 17 11 2 2 8 5 3 5 5 2 1 2 3 4 6 6 6 6 8 5 5 7 7 4 5 6 7 7 9 5 4 5 4 3
23 22 20 18 15 12 12 11 10 11 12 13 16 17 3 3 3 5 3 5 4 4 3 2 3 4 5 5 4 4 3 4 7 6 4 5 3 5 6 1 3 4 1 4 2 2 4
23 24 23 20 17 14 12 12 10 10 11 13 15 3 2 2 1 2 5 4 7 6 6 7 4 5 2 3 4 4 3 2 3 4 4 2 3 5 3 3 1 4 3 2 3 0 3
26 23 23 22 20 16 12 11 10 8 9 9 3 3 2 1 2 4 4 4 2 3 5 3 4 2 4 2 3 3 2 1 2 4 0 2 2 1 6 5 4 3 3 2 3 2 3
29 26 24 22 22 18 14 13 10 8 7 6 2 1 2 2 3 4 4 5 4 2 4 3 4 4 4 4 3 3 4 2 2 2 4 1 2 4 2 3 2 5 4 3 1 2 1
32 28 25 24 23 22 17 15 11 8 4 4 1 0 1 3 3 1 3 5 3 4 3 3 4 4 4 4 3 4 4 3 3 2 2 1 2 3 4 6 4 2 2 4 3 2 2
35 32 28 25 26 24 21 17 14 10 9 3 2 2 1 3 3 1 2 2 3 4 4 3 3 3 2 5 4 3 5 5 3 4 5 3 1 2 2 3 3 3 3 4 2 2 6
33 34 31 28 27 26 23 20 16 14 12 3 2 1 3 3 1 6 6 5 5 2 3 4 5 5 4 3 1 5 4 4 2 4 3 3 3 5 5 2 2 3 3 2 4 2 3
30 35 33 31 29 29 26 23 21 18 15 4 2 4 3 3 3 4 3 6 7 6 3 4 3 5 6 4 3 4 3 2 2 3 3 3 4 2 6 6 3 6 9 7 8 9 5
29 34 35 33 32 31 30 27 25 21 18 2 4 3 1 2 4 7 3 6 7 5 7 5 6 7 5 6 6 7 6 4 4 1 2 1 2 1 4 4 6 8 9 7 9 9 11
29 29 36 35 33 31 32 30 28 26 18 3 2 2 2 3 4 5 5 7 9 9 1 6 10 6 5 6 6 5 6 5 6 7 4 3 3 2 3 3 4 5 6 6 3 2 4
28 24 33 35 34 32 33 32 30 30 26 2 3 2 3 2 3 4 6 5 8 5 8 5 7 6 4 7 5 6 4 3 4 5 5 4 4 2 2 3 2 4 2 3 5 4 2
29 19 33 35 34 33 32 33 31 31 30 2 2 3 3 2 3 3 8 4 8 5 4 5 3 4 8 5 3 4 3 2 3 4 8 5 3 1 2 2 7 2 3 5 3 4 3
24 20 33 35 35 34 32 32 31 31 30 5 2 2 2 5 6 5 6 6 5 5 3 3 5 4 6 3 3 4 4 3 3 4 3 6 2 3 1 2 5 4 4 5 4 3 3
25 23 32 34 35 35 34 33 32 30 30 8 2 6 2 3 2 3 4 9 6 4 4 5 5 2 3 2 3 3 3 2 4 6 6 5 1 4 2 3 7 5 6 5 4 4 2
20 24 32 33 34 34 34 34 33 31 30 10 2 9 3 3 2 2 0 4 4 4 5 5 4 2 3 3 3 4 3 4 2 3 6 7 7 4 4 5 9 7 3 6 4 3 4
19 24 32 32 33 33 33 33 33 31 30 20 2 4 4 2 2 1 2 2 2 5 6 1 4 4 4 4 0 3 2 1 4 3 1 3 5 5 9 6 4 6 5 4 3 4 4
Wind_Direction
325 328 327 332 340 340 336 341 346 352 347 344 347 344 339 337 333 330 327 324 325 324 321 322 332 341 322 48 48 300 331 343 0 6 41 43 44 67 87 8 345 58 356 337 317 297 287
319 321 309 322 332 336 338 346 347 348 346 347 344 342 338 335 331 328 325 324 321 319 315 324 335 335 69 74 272 337 331 338 20 11 25 43 72 91 87 73 66 309 282 304 320 330 335
312 324 341 328 328 331 331 338 345 345 347 347 344 342 339 335 331 327 327 323 317 310 309 323 340 4 64 86 346 334 335 297 335 343 41 52 69 65 89 32 347 327 351 360 34 351 26
311 309 313 315 320 324 329 335 339 342 345 345 344 341 339 335 331 329 330 328 320 309 315 330 336 10 85 310 324 358 332 335 8 75 5 64 91 95 44 1 22 37 43 6 342 9 342
309 298 303 306 315 318 323 329 332 337 340 342 342 341 339 336 332 331 334 334 5 14 348 339 36 69 25 330 16 314 335 338 341 5 18 62 64 78 15 59 44 19 33 354 327 342 333
304 303 304 308 315 315 318 322 327 332 335 337 340 340 339 337 333 334 332 313 338 349 350 357 82 53 353 313 311 331 317 359 20 2 21 37 54 69 15 35 74 339 354 322 302 303 323
292 302 301 306 309 311 314 317 322 328 330 334 338 340 340 339 336 334 351 10 21 1 41 74 88 96 355 292 325 339 336 1 33 51 64 17 65 54 40 74 130 170 206 280 250 285 325
280 290 297 302 306 307 308 313 317 327 327 332 337 340 341 338 335 333 26 70 90 229 64 166 276 302 239 282 17 337 20 57 33 49 18 41 59 16 7 55 55 321 323 310 298 294 305
259 272 288 296 301 305 305 308 314 319 324 330 334 337 337 333 328 26 67 75 324 178 96 342 343 326 304 55 15 316 31 60 64 43 36 85 61 9 46 17 28 318 229 258 269 320 270
261 259 280 290 291 301 304 306 308 316 321 326 330 334 336 332 51 326 47 327 337 200 83 316 360 2 21 335 67 343 9 99 40 60 85 85 18 32 41 54 98 293 223 256 282 12 346
259 261 273 287 277 292 296 304 304 311 317 321 327 330 334 358 271 60 305 325 334 53 61 193 65 338 9 89 290 341 330 34 85 18 67 300 10 10 27 304 275 242 316 268 247 211 33
268 254 269 276 275 281 292 300 303 309 314 319 322 327 332 357 24 295 318 325 60 44 245 69 48 9 57 21 27 331 21 37 71 75 32 31 291 52 343 311 319 291 317 3 42 79 30
265 257 261 268 260 267 278 279 300 308 318 318 322 320 319 280 245 324 337 53 48 122 314 63 79 58 93 19 35 37 49 35 42 31 10 345 1 359 34 350 345 17 35 10 15 14 250
262 260 255 257 249 250 265 264 282 296 314 318 324 318 253 239 309 344 52 55 94 218 195 101 90 72 76 27 30 28 47 34 20 56 63 31 355 15 348 145 265 312 85 127 187 299 294
258 258 257 249 237 242 249 256 271 284 306 322 326 310 287 272 306 51 76 74 204 206 159 135 64 84 61 35 92 67 56 88 15 28 102 48 284 328 335 301 168 321 64 193 140 301 279
256 250 251 247 229 228 242 245 255 265 296 328 343 338 254 2 134 61 78 212 180 234 119 108 122 136 136 154 102 90 121 328 145 14 117 184 285 287 300 4 3 65 308 68 18 17 297
255 248 242 242 227 232 214 233 222 253 277 323 1 58 236 18 89 59 164 207 191 206 127 121 133 118 128 147 149 146 142 355 50 351 45 65 117 294 352 51 350 354 13 19 161 96 227
256 243 237 234 226 221 209 211 212 225 238 79 138 307 287 102 69 41 156 184 176 141 92 95 97 100 133 151 147 157 145 145 214 139 131 127 149 276 258 277 198 54 79 56 66 329 265
274 241 231 226 226 215 210 205 202 201 198 137 199 221 335 111 152 251 248 183 191 138 143 125 113 119 134 147 130 155 131 157 134 142 156 173 191 349 21 14 74 108 119 114 229 200 235
280 244 229 220 221 211 211 192 196 195 191 132 130 147 325 52 145 149 150 168 145 103 114 112 115 103 109 121 96 159 140 193 335 181 162 156 187 197 201 168 136 260 189 140 161 178 264
258 268 228 216 213 213 201 197 190 191 188 134 166 232 193 204 251 171 133 146 144 152 135 126 92 154 149 129 126 176 144 93 40 103 80 121 200 226 263 262 225 254 264 254 212 224 213
253 286 225 213 210 208 199 197 182 187 177 148 189 161 11 147 128 120 173 214 152 157 139 184 145 166 154 151 173 180 145 196 179 102 105 332 226 53 289 287 223 256 255 238 245 244 239
254 273 224 211 207 206 201 193 182 184 174 168 200 284 118 166 150 117 203 170 185 133 227 162 147 124 153 210 176 180 181 165 162 153 158 150 147 127 265 332 316 309 228 194 221 157 205
250 254 237 208 206 202 200 192 188 184 192 154 193 128 116 213 167 196 167 144 160 156 136 140 121 123 187 104 87 69 93 190 193 218 159 157 159 144 261 354 8 251 104 123 157 166 165
245 257 251 206 201 199 199 193 190 187 193 161 154 149 141 166 168 158 154 138 125 138 99 130 148 150 128 79 77 42 351 67 206 213 200 159 154 118 119 255 292 233 182 165 172 226 205
242 272 239 203 198 195 192 191 189 189 191 169 179 140 128 124 227 140 145 158 143 137 87 86 41 83 75 81 78 139 195 170 171 119 48 131 75 120 154 138 238 234 163 135 111 259 201
243 282 216 201 196 193 189 192 187 188 188 169 195 173 123 135 250 139 164 172 139 119 117 124 150 95 63 100 102 157 221 178 178 170 160 151 194 192 178 241 282 238 166 131 153 219 239
245 285 207 197 195 192 190 190 187 185 187 168 161 188 148 132 238 205 236 133 110 136 140 173 82 337 63 97 139 196 171 213 157 188 178 168 161 188 176 210 259 157 95 177 193 201 214
258 267 203 194 191 189 189 187 186 183 183 162 144 185 167 100 154 12 289 303 30 163 126 23 144 151 159 101 168 109 169 126 165 222 156 213 189 180 188 214 222 199 177 196 136 218 252